Orbital Elements at Epoch 2459000.5 (2020-May-31.0) TDB
Reference: JPL 23 (heliocentric ecliptic J2000)
Element | Value | Uncertainty (1-sigma) | Units |
e | .04917427040004825 | 3.6939e-08 | |
a | 2.428387643970529 | 1.1245e-08 | au |
q | 2.308973453329786 | 9.4925e-08 | au |
i | 7.35539803769432 | 3.7728e-06 | deg |
node | 257.8457036484283 | 3.4407e-05 | deg |
peri | 327.8068937154802 | 6.3926e-05 | deg |
M | 304.20892599823 | 5.444e-05 | deg |
tp | 2459214.708978216279 (2020-Dec-31.20897822) | 0.00020906 | TDB |
period | 1382.214512583395 3.78 | 9.6005e-06 2.628e-08 | d yr |
n | .2604516134960489 | 1.809e-09 | deg/d |
Q | 2.547801834611272 | 1.1798e-08 | au |
|
| | Orbit Determination Parameters
Additional Information
|